Flag for Germany Weather past 2 weeks in Friedrichshafen, Baden-Württemberg, Germany

Now
43 °F

Passing clouds.


Feels Like: 39 °F
Forecast: 28 / 47 °F
Wind: 6 mph from Northwest

Location: Friedrichshafen Airport

Current Time: Feb 28, 2015 at 5:13:41 PM

Latest Report: Feb 28, 2015 at 4:20 PM


Visibility: N/A

Pressure: 30.07 "Hg

Humidity: 57%

Dew point: 28 °F

Location of FriedrichshafenLocation

Historic Weather in Friedrichshafen — Graph

°F

Friedrichshafen temperature yesterday

Maximum temperature yesterday: 36 °F (at 4:50 PM)
Minimum temperature yesterday: 25 °F (at 12:50 AM)
Average temperature yesterday: 32 °F

Past Weeks' High & Low Weather Summary

 TemperatureHumidityPressure
High52 °F (Feb 20, 4:50 PM)100% (Feb 23, 5:20 AM)30.69 "Hg (Feb 23, 5:20 AM)
Low21 °F (Feb 14, 6:50 AM)29% (Feb 26, 4:50 PM)29.50 "Hg (Feb 21, 12:50 PM)
Average32 °F80%30.03 "Hg
* Reported Feb 13 3:20 PM — Feb 28 3:50 PM, Friedrichshafen, Weather by CustomWeather, © 2015

Note: Actual official high and low records may vary slightly from our data, if they occured in-between our weather recording intervals... More about our weather records

Advertising

Friedrichshafen weather history for previous 24 hours

 ConditionsComfort  
Time TempWeatherWind HumidityBarometerVisibility
3:50 PM
Sat, Feb 28
43 °FScattered clouds.6 mph57%30.07 "HgN/A
3:20 PM43 °FScattered clouds.7 mph57%30.07 "HgN/A
2:50 PM43 °FPartly sunny.6 mph57%30.07 "HgN/A
2:20 PM41 °FBroken clouds.5 mph61%30.09 "HgN/A
1:50 PM41 °FScattered clouds.3 mph66%30.09 "HgN/A
1:20 PM41 °FPassing clouds.6 mph66%30.09 "HgN/A
12:50 PM41 °FPassing clouds.6 mph66%30.12 "HgN/A
12:20 PM41 °FPassing clouds.7 mph66%30.12 "HgN/A
11:50 AM41 °FPassing clouds.7 mph66%30.12 "HgN/A
11:20 AM39 °FPartly sunny.9 mph70%30.15 "HgN/A
10:50 AM39 °FPartly sunny.6 mph75%30.15 "HgN/A
10:20 AM37 °FPartly sunny.3 mph81%30.15 "Hg6 mi
9:50 AM36 °FLow clouds.3 mph93%30.15 "Hg4 mi
9:20 AM34 °FBroken clouds.5 mph93%30.15 "Hg4 mi
8:50 AM34 °FMore clouds than sun.2 mph93%30.15 "Hg5 mi
8:20 AM34 °FMore clouds than sun.No wind93%30.15 "Hg5 mi
7:50 AM34 °FChilly.2 mph87%30.15 "Hg1 mi
7:20 AM32 °FIce fog.2 mph93%30.15 "Hg3 mi
6:50 AM34 °FFog.3 mph93%30.15 "Hg3 mi
5:50 AM34 °FChilly.1 mph87%30.12 "Hg1 mi
5:20 AM34 °FChilly.2 mph87%30.12 "Hg1 mi
4:50 AM34 °FChilly.1 mph87%30.12 "Hg1 mi
4:20 AM34 °FFog.3 mph93%30.12 "Hg1 mi
3:50 AM34 °FChilly.2 mph93%30.12 "Hg1 mi
3:20 AM34 °FChilly.1 mph93%30.12 "Hg1 mi
2:55 AM34 °FFog.No wind93%30.12 "Hg2 mi
2:20 AM34 °FChilly.No wind87%30.15 "Hg1 mi
2:00 AM34 °FChilly.No wind87%30.15 "Hg2 mi
1:20 AM36 °FMostly cloudy.3 mph87%30.15 "HgN/A
12:50 AM36 °FSprinkles. Overcast.3 mph87%30.15 "HgN/A
12:20 AM36 °FDrizzle. Mostly cloudy.5 mph87%30.12 "HgN/A
11:50 PM
Fri, Feb 27
36 °FLight rain. Mostly cloudy.5 mph87%30.12 "HgN/A
11:20 PM36 °FLight rain. Overcast.3 mph87%30.12 "HgN/A
10:50 PM36 °FSprinkles. Overcast.6 mph87%30.12 "HgN/A
10:20 PM36 °FSprinkles. Overcast.7 mph87%30.12 "HgN/A
9:20 PM36 °FLight rain. Mostly cloudy.10 mph87%30.09 "HgN/A
8:50 PM36 °FLight rain. Mostly cloudy.9 mph87%30.09 "HgN/A
8:20 PM36 °FLight rain. Low clouds.10 mph87%30.09 "HgN/A
7:50 PM36 °FLight rain. Mostly cloudy.10 mph87%30.07 "HgN/A
7:20 PM36 °FLight rain. Low clouds.12 mph87%30.07 "HgN/A
6:50 PM36 °FLight rain. Mostly cloudy.12 mph87%30.04 "HgN/A
6:20 PM36 °FLight rain. Mostly cloudy.10 mph87%30.04 "HgN/A
5:50 PM36 °FLight rain. Low clouds.9 mph87%30.01 "HgN/A
5:20 PM36 °FLight rain. Low clouds.12 mph87%29.98 "HgN/A
Weather by CustomWeather, © 2015

See weather overviewHow to use our weather pages